This demonstration page uses our WeatherBlox Daily Observations layout. Learn more.

Left ArrowRight Arrow

39.01783, -85.05884

Hourly Observations for July 16, 2018

Temp ( °F °C ) Dew Point ( °F °C ) Humidity (%) Winds ( mph kmh ) Pressure ( in mb ) Visibility ( mi km ) Precip ( " mm )
12:52 am 00:52 Cloudy 75 23.9 71 21.7 88 88 S 5 7 29.98 1015 10 16 0.00 0.00
1:52 am 01:52 Cloudy 75 23.9 71 21.7 88 88 S 5 7 29.98 1015 10 16 0.00 0.00
2:52 am 02:52 Cloudy 76 24.4 72 22.2 88 88 SSW 6 9 29.97 1015 10 16 0.00 0.00
3:52 am 03:52 Cloudy 75 23.9 72 22.2 90 90 SSW 5 7 29.96 1015 10 16 0.00 0.00
4:52 am 04:52 Cloudy 75 23.9 72 22.2 90 90 S 3 6 29.96 1015 9 14 0.00 0.00
5:52 am 05:52 Mostly Cloudy 73 22.8 71 21.7 94 94 SSE 3 6 29.95 1014 8 13 0.00 0.00
6:52 am 06:52 Mostly Cloudy 72 22.2 71 21.7 97 97 VRB 5 7 29.96 1015 10 16 0.00 0.00
7:11 am 07:11 Partly Cloudy 72 22.2 71 21.7 97 97 SSE 7 11 29.97 1015 10 16 0.00 0.00
7:52 am 07:52 Partly Cloudy 74 23.3 72 22.2 94 94 SSE 7 11 29.96 1015 10 16 0.00 0.00
8:09 am 08:09 Partly Cloudy 75 23.9 72 22.2 90 90 S 7 11 29.97 1015 8 13 0.00 0.00
8:25 am 08:25 Mostly Cloudy 76 24.4 72 22.2 88 88 SSW 7 11 29.97 1015 10 16 0.00 0.00
8:52 am 08:52 Mostly Cloudy 76 24.4 71 21.7 85 85 WSW 6 9 29.96 1015 10 16 0.00 0.00
9:42 am 09:42 Mostly Cloudy 77 25 70 21.1 79 79 SW 6 9 29.97 1015 10 16 0.00 0.00
9:52 am 09:52 Mostly Cloudy 79 26.1 71 21.7 77 77 SSW 6 9 29.96 1015 10 16 0.00 0.00
10:22 am 10:22 Mostly Cloudy 80 26.7 71 21.7 74 74 SW 8 13 29.97 1015 10 16 0.00 0.00
10:52 am 10:52 Cloudy 80 26.7 71 21.7 74 74 SW 7 11 29.97 1015 10 16 0.00 0.00
11:52 am 11:52 Mostly Cloudy 80 26.7 71 21.7 74 74 SW 7 11 29.97 1015 10 16 0.00 0.00
12:52 pm 12:52 Cloudy with Light Rain 77 25 74 23.3 90 90 S 5 7 29.96 1015 10 16 0.03 0.76
1:14 pm 13:14 Cloudy with Light Rain 78 25.6 74 23.3 87 87 Calm 29.97 1015 8 13 0.00 0.03
1:52 pm 13:52 Cloudy 78 25.6 74 23.3 87 87 W 5 7 29.94 1014 10 16 0.01 0.25
2:52 pm 14:52 Mostly Cloudy 82 27.8 73 22.8 74 74 VRB 5 7 29.91 1013 10 16 0.00 0.00
3:52 pm 15:52 Partly Cloudy 85 29.4 72 22.2 65 65 WSW 9 15 29.90 1012 10 16 0.00 0.00
4:52 pm 16:52 Partly Cloudy 86 30 71 21.7 61 61 W 5 7 29.87 1012 10 16 0.00 0.00
5:52 pm 17:52 Partly Cloudy 87 30.6 71 21.7 59 59 WSW 7 11 29.87 1012 10 16 0.00 0.00
6:52 pm 18:52 Partly Cloudy 85 29.4 72 22.2 65 65 WSW 10 17 29.86 1011 10 16 0.00 0.00
7:52 pm 19:52 Mostly Cloudy 85 29.4 71 21.7 63 63 W 10 17 29.86 1011 10 16 0.00 0.00
8:52 pm 20:52 Partly Cloudy 81 27.2 73 22.8 77 77 W 9 15 29.88 1012 10 16 0.00 0.00
9:52 pm 21:52 Partly Cloudy 78 25.6 73 22.8 85 85 WSW 6 9 29.89 1012 10 16 0.00 0.00
10:52 pm 22:52 Mostly Cloudy 78 25.6 73 22.8 85 85 W 7 11 29.91 1013 10 16 0.00 0.00
11:52 pm 23:52 Partly Cloudy 78 25.6 71 21.7 79 79 NW 8 13 29.91 1013 10 16 0.00 0.00

Powered by AerisWeather